Tracking 28790 objects as of 18-Apr-2024
HD Live streaming from Space Station
objects crossing your sky now

DELTA 1 DEB

Track DELTA 1 DEB now!
10-day predictions


NORAD ID: 13573
Int'l Code: 1978-026FL
Perigee: 887.8 km
Apogee: 992.4 km
Inclination: 98.9 °
Period: 103.7 minutes
Semi major axis: 7311 km
RCS: 0.0137 m2 (small)
Launch date: March 5, 1978
Source: United States (US)
Launch site: AIR FORCE WESTERN TEST RANGE (AFWTR)

Note: This is SATELLITE DEBRIS
Your satellite tracking list
Your tracking list is empty




NASA's NSSDC Master Catalog

Two Line Element Set (TLE):
1 13573U 78026FL  24109.23700285  .00000201  00000-0  19754-3 0  9997
2 13573  98.9088 352.0293 0071571 265.7265 221.9435 13.88765503173666
Source of the keplerian elements: AFSPC